Content
SEND FEEDBACK

Daily
Averages
Monthly
Summary
France

RENNES, FRANCE


Home > Europe > France
Elevation: 121 feet     Latitude: 48 04N     Longitude: 001 43W

WEATHER
 
SELECT A DAY
Number of Records: 235,787;   Date Range: 7/1/96 - 7/20/14
 
SHARE

PRINT THIS DATA

[ ← Previous Day ]
WEATHER ALMANAC - JANUARY 23, 2013
[ Next Day → ]
[ °C ]   °F
Weather ElementAverageHighLow
Temperature36.2 °F42.8 °F (4:30 pm)32 °F (1:30 am)
Dewpoint34.9 °F39.2 °F (2:00 pm)32 °F (1:30 am)
Humidity95 %100 % (12:30 am)81 % (5:00 pm)
Barometer29.66 in29.75 in (1:00 pm)29.53 in (12:30 am)
Wind Speed4.6 mph8.1 mph (2:30 pm)
Weather ElementAverage
Visibility2.9 mi
Wind DirectionSE (136.7 °)

Weather ElementTotal
Precipitation---
Heating Degree Days27.6 (Base 65)
Averaged from 51 records on January 23, 2013
WEATHER CONDITIONS BREAKOUT
WIND DIRECTION BREAKOUT
WEATHER BY HOUR - JANUARY 23, 2013
[ °C ]   °F
Local TimeTemperatureDewpointHumidityBarometerVisibilityWind DirectionWind SpeedGust SpeedPrecipitationEventsConditions
12:30 AM33.8 °F33.8 °F100 %29.53 in1.2 miSE (130°)2.3 mphMist
1:00 AM34.0 °F33.0 °F95 %29.56 in1.0 miESE (120°)2.3 mphMist
1:00 AM33.8 °F33.8 °F100 %29.53 inESE (120°)1.2 mphFogFog
1:30 AM32.0 °F32.0 °F100 %29.56 in0.6 miEast (80°)4.6 mphFogPatches of Fog
2:00 AM33.8 °F33.8 °F100 %29.56 inENE (60°)4.6 mphMist
2:30 AM33.8 °F32.0 °F93 %29.56 in1.2 miEast (80°)3.5 mphMist
3:00 AM33.8 °F32.0 °F93 %29.56 in0.7 miESE (110°)3.5 mphFogPatches of Fog
3:30 AM32.0 °F32.0 °F100 %29.59 in1.1 miEast (90°)3.5 mphOvercast
4:00 AM33.8 °F32.0 °F93 %29.59 inEast (100°)2.3 mphFogFog
4:30 AM33.8 °F32.0 °F93 %29.59 in0.1 miESE (110°)3.5 mphFogFog
5:00 AM32.0 °F32.0 °F100 %29.62 in0.1 miESE (110°)4.6 mphFogFog
5:30 AM32.0 °F32.0 °F100 %29.62 in0.1 miESE (120°)3.5 mphFogFog
6:00 AM32.0 °F32.0 °F100 %29.62 in0.1 miESE (120°)5.8 mphFogFog
6:30 AM32.0 °F32.0 °F100 %29.62 in0.1 miSE (140°)3.5 mphFogFog
7:00 AM32.0 °F32.0 °F100 %29.67 in0.0 miSSE (160°)2.3 mphFogHeavy Fog
7:00 AM32.0 °F32.0 °F100 %29.65 in0.1 miSSE (160°)2.3 mphFogFog
7:30 AM32.0 °F32.0 °F100 %29.65 in0.1 miSSW (200°)1.2 mphFogFog
8:00 AM32.0 °F32.0 °F100 %29.65 in0.7 miVariable2.3 mphMist
8:30 AM32.0 °F32.0 °F100 %29.68 inSouth (190°)1.2 mphOvercast
9:00 AM32.0 °F32.0 °F100 %29.68 inVariable2.3 mphOvercast
9:30 AM33.8 °F32.0 °F93 %29.71 in4.3 miVariable1.2 mphOvercast
10:00 AM33.8 °F33.8 °F100 %29.71 in3.1 miSE (140°)2.3 mphOvercast
10:30 AM33.8 °F33.8 °F100 %29.74 inSouth (170°)3.5 mphRainLight Rain
11:00 AM33.8 °F33.8 °F100 %29.74 inSE (140°)3.5 mphRainLight Rain
11:30 AM35.6 °F33.8 °F93 %29.74 inSSE (160°)3.5 mphOvercast
12:00 PM35.6 °F35.6 °F100 %29.74 inSSE (150°)3.5 mphOvercast
12:30 PM39.2 °F37.4 °F93 %29.74 inSSE (160°)3.5 mphMostly Cloudy
1:00 PM39.0 °F38.0 °F92 %29.75 in3.0 miSouth (180°)5.8 mphMist
1:00 PM39.2 °F37.4 °F93 %29.74 in3.1 miSouth (180°)5.8 mphMostly Cloudy
1:30 PM39.2 °F37.4 °F93 %29.71 inSouth (170°)6.9 mphOvercast
2:00 PM39.2 °F39.2 °F100 %29.71 in3.1 miSouth (190°)5.8 mphLight Drizzle
2:30 PM41.0 °F39.2 °F93 %29.71 in3.7 miSouth (190°)8.1 mphOvercast
3:00 PM41.0 °F39.2 °F93 %29.71 in4.3 miSSW (210°)8.1 mphMostly Cloudy
3:30 PM41.0 °F39.2 °F93 %29.71 in5.0 miSouth (190°)6.9 mphOvercast
4:00 PM41.0 °F39.2 °F93 %29.71 in6.2 miSSW (200°)6.9 mphOvercast
4:30 PM42.8 °F39.2 °F87 %29.71 in6.2 miSouth (190°)5.8 mphOvercast
5:00 PM42.8 °F37.4 °F81 %29.71 in5.6 miSSW (200°)5.8 mphMostly Cloudy
5:30 PM41.0 °F37.4 °F87 %29.71 in5.6 miSouth (170°)4.6 mphRainLight Rain
6:00 PM41.0 °F37.4 °F87 %29.68 in5.6 miSouth (170°)5.8 mphRainLight Rain
6:30 PM39.2 °F37.4 °F93 %29.68 in4.3 miSouth (170°)6.9 mph
7:00 PM39.0 °F37.0 °F88 %29.69 in6.0 miSouth (170°)6.9 mphClear
7:00 PM39.2 °F37.4 °F93 %29.68 in5.6 miSouth (170°)6.9 mph
7:30 PM39.2 °F37.4 °F93 %29.65 in5.6 miSSE (160°)6.9 mph
8:00 PM39.2 °F35.6 °F87 %29.65 in5.0 miSSE (160°)5.8 mph
8:30 PM37.4 °F35.6 °F93 %29.65 in5.0 miSE (140°)4.6 mph
9:00 PM37.4 °F35.6 °F93 %29.65 inESE (120°)5.8 mphMist
9:30 PM37.4 °F35.6 °F93 %29.62 in3.1 miEast (100°)6.9 mphMist
10:00 PM37.4 °F35.6 °F93 %29.62 inESE (120°)8.1 mphMist
10:30 PM37.4 °F35.6 °F93 %29.62 inEast (100°)6.9 mphMist
11:00 PM37.4 °F35.6 °F93 %29.62 in3.1 miESE (110°)6.9 mphMist
11:30 PM37.4 °F35.6 °F93 %29.62 in3.1 miEast (90°)6.9 mphMist
Hourly data recorded from LFRN, located miles away from Rennes, France







STORIES FROM OUR PARTNERS